Wind_Speed
10 14 17 18 20 19 18 19 18 17 17 18 17 15 12 9 9 8 7 6 5 5 4 8 9 10 10 10 11 13 16 15 15 12 10 8 7 6 6 5 4 5 6
10 12 13 17 18 21 20 20 21 20 20 20 18 14 12 10 8 8 7 6 6 6 4 6 8 10 9 11 11 13 15 19 18 16 13 11 9 9 9 9 9 9 8
9 11 11 14 18 19 19 20 22 23 22 21 18 15 13 12 11 8 8 8 7 7 5 6 7 8 8 9 11 12 12 13 13 13 15 14 13 10 10 11 10 9 8
10 13 14 14 18 21 20 19 21 23 23 21 18 17 17 13 9 10 11 10 7 5 4 4 5 6 7 7 8 10 11 10 8 8 9 9 8 8 8 8 8 8 8
12 15 17 18 19 20 19 18 19 20 21 20 19 18 17 13 11 12 12 11 7 4 2 1 3 5 5 5 5 6 6 7 8 9 9 7 6 8 7 8 8 7 8
19 14 21 20 17 20 20 20 19 20 20 20 18 17 16 14 13 13 11 10 8 6 3 2 2 4 5 4 3 3 4 4 4 6 7 6 5 6 7 8 9 7 5
25 15 20 19 19 19 19 20 19 19 20 20 17 16 15 13 12 11 10 10 9 8 7 6 4 3 4 5 5 3 2 1 1 3 5 7 5 3 5 8 10 7 3
24 14 16 20 21 22 20 22 22 20 20 20 17 15 14 13 13 12 11 11 11 11 12 10 9 7 5 4 4 6 5 3 2 2 2 4 6 7 7 9 11 11 3
28 25 16 20 23 22 19 19 21 19 19 19 18 16 16 13 13 14 14 14 13 13 13 12 11 9 8 7 6 5 8 8 6 4 3 7 9 10 11 11 8 4 3
32 24 13 20 22 23 23 22 21 19 19 19 18 15 13 13 12 12 13 15 16 16 14 15 14 12 11 9 9 8 8 10 11 9 7 10 12 12 12 12 11 9 7
35 30 14 20 23 25 24 24 22 20 18 16 16 15 15 14 13 12 13 15 15 15 13 15 14 14 13 11 10 11 10 11 12 13 11 13 15 15 12 11 12 10 8
34 34 18 21 25 26 24 24 22 20 20 21 19 18 14 13 10 10 10 10 10 10 10 11 12 14 15 15 14 12 12 12 13 14 13 13 13 13 12 11 11 10 12
34 35 28 20 22 25 25 24 23 22 23 21 18 16 16 11 9 10 10 9 8 9 8 6 6 6 7 9 11 13 13 13 13 15 15 14 13 11 12 14 16 18 16
38 36 35 24 22 22 24 25 24 24 22 18 16 16 16 13 12 12 11 11 11 10 8 6 4 3 3 5 7 8 9 11 14 18 17 18 19 19 15 14 15 14 19
36 36 38 30 25 27 26 26 27 25 24 22 19 17 18 16 15 13 13 13 12 10 9 7 5 3 2 3 5 7 10 10 15 19 21 20 22 23 23 19 21 24 24
45 49 46 37 29 23 25 28 28 27 27 22 19 18 16 11 11 14 14 14 14 11 13 10 10 8 4 4 5 6 9 11 14 17 20 23 23 24 26 30 30 28 29
34 35 41 39 33 28 24 30 29 28 25 23 21 16 12 9 11 13 13 10 13 13 11 16 13 10 9 9 9 9 9 10 14 19 22 23 25 26 25 27 31 31 31
33 31 33 35 32 30 28 29 32 32 28 24 21 19 16 13 15 16 15 14 15 18 18 15 16 14 12 13 16 19 20 19 18 20 21 22 24 25 29 31 33 35 34
37 37 34 34 35 36 35 38 37 33 30 26 24 25 24 22 20 19 20 20 17 19 19 23 17 16 17 18 19 22 26 27 26 27 22 23 23 25 28 31 31 34 38
35 32 32 35 38 37 38 40 36 31 29 26 30 35 30 29 29 29 27 27 24 20 19 22 22 19 20 23 24 26 31 32 31 32 30 28 27 30 32 34 36 38 39
36 34 32 32 32 25 23 26 26 24 21 33 35 34 35 34 35 37 36 34 32 29 25 25 24 22 22 24 24 26 30 31 35 36 35 34 36 38 39 40 42 41 47
35 36 36 35 34 32 28 25 25 28 28 33 32 36 39 38 40 40 41 42 38 36 33 29 28 28 29 28 28 29 33 36 42 42 41 43 43 47 46 46 48 52 51
41 38 36 35 33 32 29 25 26 27 29 34 38 40 40 41 43 44 41 40 37 36 36 35 33 34 35 35 36 39 39 41 46 47 47 52 51 51 53 53 57 57 56
41 39 39 39 39 33 34 32 29 28 29 29 31 31 30 35 40 40 40 42 37 37 36 36 38 40 41 42 46 47 46 45 46 49 49 53 57 60 59 59 58 64 62
40 40 40 42 38 34 34 34 32 33 34 32 31 32 33 33 35 38 39 40 41 42 42 43 45 46 46 47 48 50 53 52 52 55 57 60 61 64 67 70 69 69 68
43 45 43 43 42 40 37 36 34 34 36 35 35 34 36 37 37 39 40 42 44 45 46 48 49 49 50 52 53 55 58 60 58 59 61 64 66 68 71 75 75 75 76
Wind_Direction
278 238 228 222 207 191 195 195 185 181 183 176 178 183 181 177 178 179 162 145 133 112 78 56 48 47 51 52 43 47 49 49 60 70 69 57 58 53 43 33 6 19 355
286 250 231 211 200 194 199 196 194 188 192 191 191 192 195 191 186 185 167 154 148 120 104 65 54 49 45 46 38 46 55 59 57 63 70 70 68 61 56 47 38 32 25
268 246 227 211 206 201 203 203 198 197 195 196 195 200 206 208 199 178 172 172 161 135 119 77 60 52 43 40 44 46 50 63 65 68 68 70 75 72 66 61 53 44 26
263 244 227 224 214 207 207 206 200 204 199 199 202 205 207 210 194 182 182 178 170 140 113 85 60 49 45 41 46 53 48 51 61 67 68 63 61 56 47 36 32 28 12
262 242 234 225 220 214 211 206 206 208 206 204 206 205 207 204 201 202 191 183 190 204 184 75 55 58 43 40 45 47 57 70 66 56 59 60 55 44 31 14 358 353 336
261 248 237 226 221 221 219 219 213 211 209 208 206 204 207 198 204 206 203 196 207 226 241 295 7 32 35 16 19 45 61 86 62 45 50 42 45 32 38 23 14 348 350
251 258 243 229 224 222 222 219 215 213 213 212 209 208 212 211 213 218 222 222 224 237 250 264 284 327 352 3 339 341 351 106 86 64 45 36 33 24 28 29 19 23 23
268 253 253 234 226 222 222 219 211 213 212 211 214 211 209 216 224 236 242 245 251 258 266 269 280 291 300 309 330 307 298 282 283 307 2 356 355 356 358 348 356 7 18
249 267 262 241 230 225 217 210 207 206 208 211 211 211 217 226 233 244 255 265 264 262 264 268 265 269 276 277 279 295 280 278 269 297 340 321 322 327 334 318 345 345 300
244 259 247 241 230 223 219 213 211 204 209 214 216 217 228 238 247 253 257 259 263 265 267 270 266 262 264 269 271 272 278 269 274 286 310 314 328 321 305 300 317 318 287
237 252 248 240 228 222 219 218 217 213 214 221 225 226 230 239 260 274 276 277 277 276 270 263 265 271 272 275 279 274 283 280 276 283 289 305 327 339 320 307 290 307 304
220 242 242 244 232 227 215 218 216 218 217 218 219 228 242 254 260 266 273 277 282 283 283 267 266 264 273 280 278 270 269 279 278 279 282 300 310 322 314 309 291 302 309
210 229 245 245 233 234 226 217 220 218 218 221 229 244 260 239 255 271 284 292 282 278 290 287 282 308 312 295 291 284 264 255 263 257 267 266 290 295 294 297 293 300 304
207 227 241 237 232 225 229 226 224 225 223 224 234 249 250 248 262 282 297 294 289 277 271 280 294 281 283 300 308 303 280 261 263 257 254 262 268 268 276 288 305 298 302
205 220 237 239 226 221 215 225 219 228 230 226 229 245 241 252 264 275 288 301 307 292 277 263 249 255 283 290 313 312 305 278 266 262 255 262 269 267 278 287 289 298 296
213 220 227 231 244 236 230 214 222 224 228 238 240 243 236 262 278 269 281 299 305 303 274 261 265 277 287 299 310 316 312 311 308 291 285 267 269 271 282 287 287 290 294
233 233 234 235 241 242 225 221 221 226 226 227 236 247 262 262 268 268 275 290 290 288 277 260 255 263 283 291 303 310 317 322 333 320 303 296 282 281 279 284 290 293 294
234 235 235 240 244 244 241 230 229 236 240 241 244 249 248 252 262 261 267 272 273 281 275 264 255 257 265 281 292 299 307 308 316 326 323 311 298 294 289 283 285 292 298
229 232 233 235 241 243 241 237 238 237 241 245 250 255 258 258 260 262 267 268 264 270 271 262 268 273 280 287 293 297 296 301 307 306 309 298 294 294 292 288 289 286 287
223 223 227 233 233 235 235 241 242 240 244 251 255 255 253 255 262 268 265 267 264 264 261 259 261 272 278 284 287 290 291 295 297 297 300 299 293 293 297 291 289 289 290
224 230 238 247 254 256 257 255 255 239 235 246 246 246 246 248 256 263 267 269 266 264 264 262 256 258 266 270 272 274 279 287 288 290 291 292 289 292 294 295 289 292 287
228 230 231 233 239 241 241 243 247 250 232 227 240 247 248 246 250 254 263 270 261 261 264 265 263 265 270 269 269 271 273 276 279 283 285 285 286 287 289 289 290 291 286
229 236 238 240 240 240 238 233 234 237 237 231 229 234 241 245 247 250 255 260 256 258 263 265 268 271 274 274 274 274 272 272 276 277 279 282 284 284 287 291 291 284 286
227 232 237 240 240 240 242 241 239 239 240 241 244 243 245 247 245 244 245 254 256 258 262 264 263 266 271 272 272 273 277 275 277 279 280 284 286 287 290 291 289 288 292
226 230 232 237 242 240 240 242 243 242 242 243 245 247 248 248 247 249 251 251 254 256 258 261 266 268 269 274 275 275 275 272 273 276 279 283 287 288 289 290 292 292 294
230 230 230 234 237 241 245 243 240 240 241 243 244 245 247 248 249 250 252 255 255 257 260 265 268 270 271 270 272 274 277 280 278 277 280 281 284 287 290 291 292 291 291
Height
5884 5886 5888 5892 5896 5900 5903 5907 5910 5914 5918 5920 5922 5925 5928 5931 5933 5934 5936 5938 5939 5940 5940 5941 5939 5940 5938 5938 5937 5936 5933 5931 5929 5929 5928 5928 5928 5928 5927 5927 5926 5929 5928
5883 5885 5887 5891 5895 5899 5902 5906 5909 5913 5917 5920 5923 5926 5929 5931 5933 5935 5936 5938 5940 5941 5942 5942 5942 5940 5940 5940 5938 5936 5935 5934 5932 5931 5931 5930 5930 5929 5928 5928 5928 5928 5927
5880 5884 5887 5891 5894 5899 5902 5905 5908 5912 5915 5919 5922 5926 5928 5930 5933 5935 5937 5939 5940 5941 5943 5943 5943 5942 5942 5941 5939 5938 5937 5936 5936 5935 5933 5932 5931 5930 5929 5929 5930 5930 5929
5879 5882 5886 5890 5893 5897 5900 5904 5908 5911 5914 5918 5921 5924 5926 5929 5933 5935 5937 5939 5941 5942 5942 5943 5943 5943 5943 5943 5941 5940 5939 5938 5938 5937 5936 5935 5934 5932 5932 5931 5931 5930 5930
5879 5881 5885 5888 5892 5897 5900 5904 5907 5911 5914 5917 5920 5922 5926 5929 5933 5935 5937 5940 5942 5942 5943 5943 5944 5943 5943 5943 5943 5941 5940 5940 5938 5938 5938 5936 5935 5934 5933 5932 5931 5930 5929
5877 5880 5882 5886 5891 5895 5899 5903 5907 5910 5913 5916 5919 5922 5925 5928 5931 5934 5937 5940 5941 5942 5943 5943 5944 5944 5944 5944 5943 5942 5941 5940 5939 5939 5939 5938 5936 5934 5934 5934 5932 5930 5929
5875 5877 5881 5886 5889 5894 5897 5901 5905 5909 5912 5915 5919 5922 5925 5928 5931 5934 5936 5938 5940 5941 5942 5943 5944 5944 5944 5944 5943 5942 5941 5941 5941 5940 5939 5938 5936 5935 5934 5932 5931 5929 5928
5871 5873 5878 5883 5887 5890 5894 5899 5902 5906 5911 5914 5918 5921 5924 5928 5930 5933 5935 5937 5938 5939 5940 5942 5942 5942 5942 5942 5942 5941 5941 5941 5941 5940 5940 5938 5937 5936 5935 5933 5931 5930 5929
5871 5870 5877 5880 5884 5888 5892 5897 5900 5904 5909 5913 5916 5920 5923 5926 5929 5931 5933 5934 5935 5936 5938 5939 5939 5940 5940 5940 5940 5940 5939 5939 5939 5939 5939 5938 5937 5937 5935 5932 5932 5932 5930
5869 5869 5874 5877 5882 5885 5889 5894 5898 5902 5906 5911 5914 5918 5922 5924 5926 5928 5929 5930 5932 5933 5935 5934 5936 5936 5936 5937 5937 5937 5937 5938 5938 5938 5938 5937 5937 5936 5934 5933 5932 5931 5930
5865 5866 5870 5874 5879 5882 5886 5892 5896 5900 5905 5909 5913 5916 5918 5921 5923 5925 5925 5926 5927 5928 5931 5931 5932 5932 5933 5935 5936 5936 5936 5936 5937 5938 5937 5936 5935 5934 5933 5932 5931 5930 5929
5862 5863 5868 5870 5874 5880 5883 5889 5894 5899 5902 5905 5909 5913 5916 5919 5921 5922 5923 5923 5924 5925 5926 5927 5928 5930 5931 5932 5932 5933 5933 5934 5935 5935 5936 5935 5934 5932 5931 5929 5928 5928 5927
5859 5861 5863 5867 5872 5878 5882 5886 5890 5894 5898 5902 5906 5910 5913 5915 5917 5918 5920 5921 5922 5922 5923 5925 5926 5928 5929 5928 5928 5928 5928 5929 5929 5930 5931 5931 5931 5930 5929 5928 5927 5926 5925
5854 5857 5860 5865 5868 5873 5879 5884 5888 5892 5896 5900 5904 5907 5909 5912 5914 5916 5917 5918 5919 5920 5921 5923 5924 5925 5925 5925 5924 5924 5925 5926 5926 5926 5926 5927 5927 5926 5925 5926 5925 5925 5923
5849 5853 5855 5858 5863 5866 5873 5879 5884 5888 5893 5897 5901 5904 5906 5909 5911 5913 5914 5915 5917 5918 5919 5920 5921 5922 5923 5923 5923 5923 5923 5924 5923 5922 5923 5924 5925 5924 5924 5924 5923 5920 5919
5839 5844 5849 5854 5858 5864 5869 5873 5879 5883 5888 5894 5898 5901 5904 5906 5908 5910 5912 5913 5914 5916 5917 5918 5919 5920 5921 5922 5921 5922 5922 5921 5921 5921 5920 5920 5921 5922 5921 5919 5918 5917 5914
5833 5839 5845 5851 5855 5859 5865 5869 5873 5878 5883 5889 5893 5897 5899 5902 5905 5907 5908 5910 5911 5911 5914 5915 5917 5918 5919 5919 5919 5919 5920 5920 5919 5918 5917 5916 5918 5918 5917 5915 5912 5912 5910
5829 5834 5840 5846 5851 5856 5860 5865 5869 5873 5878 5883 5888 5892 5895 5898 5901 5903 5905 5906 5907 5908 5909 5911 5913 5914 5915 5915 5915 5914 5915 5916 5916 5916 5914 5913 5912 5912 5911 5911 5909 5907 5904
5822 5826 5833 5839 5844 5849 5853 5857 5861 5867 5872 5878 5883 5886 5889 5892 5895 5898 5900 5901 5901 5902 5903 5905 5908 5909 5911 5911 5910 5909 5908 5909 5909 5909 5909 5908 5906 5906 5905 5904 5904 5900 5896
5814 5818 5823 5828 5834 5839 5845 5847 5853 5861 5867 5872 5876 5878 5882 5885 5889 5891 5893 5895 5896 5896 5897 5899 5901 5903 5905 5905 5905 5903 5900 5900 5901 5900 5900 5900 5899 5898 5896 5895 5894 5892 5891
5810 5815 5822 5826 5829 5833 5838 5842 5846 5851 5861 5864 5866 5869 5873 5877 5881 5882 5885 5887 5888 5889 5891 5892 5893 5895 5897 5898 5898 5896 5894 5894 5891 5891 5891 5890 5890 5887 5887 5885 5882 5883 5879
5804 5809 5814 5819 5823 5827 5831 5836 5839 5844 5848 5851 5858 5861 5864 5868 5870 5873 5875 5877 5878 5880 5882 5883 5884 5886 5888 5888 5889 5888 5886 5885 5881 5881 5880 5878 5878 5876 5874 5871 5870 5866 5862
5794 5801 5807 5812 5817 5821 5826 5830 5834 5837 5841 5844 5848 5851 5854 5858 5860 5863 5866 5868 5870 5872 5873 5874 5875 5876 5876 5876 5875 5875 5876 5875 5871 5871 5870 5864 5861 5861 5860 5860 5857 5852 5848
5790 5794 5798 5802 5806 5815 5818 5822 5827 5831 5834 5837 5840 5843 5846 5848 5850 5853 5856 5858 5860 5862 5863 5863 5864 5864 5865 5865 5863 5863 5864 5865 5862 5860 5857 5852 5847 5843 5843 5844 5844 5842 5837
5782 5785 5790 5794 5799 5805 5809 5814 5818 5821 5824 5827 5831 5834 5837 5840 5842 5844 5846 5848 5850 5850 5851 5851 5851 5851 5853 5853 5853 5852 5848 5851 5850 5846 5842 5838 5835 5832 5828 5825 5825 5824 5822
5770 5775 5780 5785 5791 5795 5799 5804 5809 5812 5815 5819 5821 5824 5827 5829 5832 5834 5835 5837 5838 5838 5839 5840 5840 5841 5842 5841 5839 5837 5834 5831 5832 5831 5828 5825 5822 5819 5816 5809 5805 5802 5799